www.pogodaiklimat.ru

Погода и климат >> Архив погоды >> Молдова >> Сороки


ПОГОДА в Сороках

  • Прогноз погоды в Сороках
  • Монитор погоды в Сороках
  • Климат города

АРХИВ ПОГОДЫ в Сороках

Время (UTC), дата Ветер
(напр.,м/с)
 
Видим.   Явления Облачность Т
(С)
Тd
(С)
f
(%)
Тe
(С)
Тes
(С)
Комфортность P
(гПа)
Po
(гПа)
Тmin
(С)
Tmax
(С)
R
(мм)
R24
(мм)
S
(см)
15 17.11 ЮВ 3 4000 м слабый дождь 10/10 600 м
[Sc]
+3.4 +1.4 87 -1 -1 1023.7 1002.1
18 17.11 ЮВ 2 10 км дымка {дождь} 10/10 600 м
[Sc]
+3.9 +0.8 80 +1 +1 1023.3 1001.8 +4.3 0.4
21 17.11 ЮВ 2 10 км 10/10 600 м
[Sc]
+3.6 +0.8 82 +1 +1 1022.9 1001.4
00 18.11 ЮВ 1 10 км 10/0
[Ac und]
+3.4 +1.1 85 +2 +2 1022.1 1000.6
03 18.11 В 1 10 км в посл. час дождь 10/0
[Ac As]
+3.0 +1.7 91 +1 +1 1020.8 999.3
06 18.11 ЮВ 1 4000 м дымка {дождь} 10/10 600 м
[Sc]
+3.2 +1.9 91 +2 +2 1020.4 998.9 +2.9 0.0
09 18.11 В 1 10 км 10/10 600 м
[Sc]
+4.4 +1.8 83 +3 +3 1019.3 997.9
12 18.11 ЮВ 1 10 км 10/10 600 м
[Sc]
+5.2 +2.0 80 +4 +4 1017.5 996.2
15 18.11 штиль 0 10 км 10/10 600 м
[Sc]
+5.3 +2.8 84 +4 +4 1016.1 994.9
18 18.11 Ю 1 10 км 10/10 600 м
[Sc]
+5.4 +2.6 82 +4 +4 1014.9 993.7 +5.5
21 18.11 ЮВ 1 4000 м слабый дождь 10/10 600 м
[Sc]
+4.7 +3.2 90 +3 +3 1014.0 992.8
00 19.11 Ю 1 2000 м слабый дождь 10/10 600 м
[Sc]
+4.2 +3.3 94 +3 +3 1012.7 991.4
03 19.11 штиль 0 2000 м слабый дождь 10/10 600 м
[Sc]
+4.8 +3.9 94 +4 +4 1011.2 990.0
06 19.11 штиль 0 1000 м в посл. час дождь 10/10 600 м
[Sc]
+4.8 +3.9 94 +4 +4 1010.8 989.6 +4.2 4
09 19.11 З 3 2000 м слабый дождь {туман} 10/10 600 м
[Frnb Ns]
+5.5 +4.6 94 +2 +2 1010.8 989.7
12 19.11 З 3 4000 м в посл. час дождь {туман} 10/10 600 м
[Sc]
+5.2 +3.9 91 +2 +2 1010.6 989.5
15 19.11 З 3 4000 м дымка 10/3 1000 м
[Sc Ac trans]
+3.8 +2.5 91 -0 -0 1011.1 989.8
18 19.11 СЗ 3 4000 м дымка 5/0
[Ac trans]
+1.4 +0.2 92 -3 -3 1011.9 990.4 +5.6 1
21 19.11 штиль 0 4000 м дымка 5/0
[Ac trans]
+0.9 0.0 94 -0 -0 1012.4 990.9
00 20.11 Ю 1 2000 м дымка 6/0
[Ac trans]
-1.2 -1.9 95 -4 -4 1011.9 990.2
03 20.11 С 1 500 м переохл. туман [диам. изморози 0 мм] ясно -2.4 -3.1 95 -5 -5 1011.8 990.0
06 20.11 штиль 0 500 м переохл. туман 8/0
[As op]
-3.1 -3.8 95 -4 -4 1011.8 990.0 -4.4
09 20.11 штиль 0 500 м переохл. туман 6/0
[As op]
-1.5 -2.2 95 -3 -1 1012.2 990.5
12 20.11 штиль 0 500 м туман 8/0
[Ac trans]
+1.0 +0.4 96 -0 +1 1011.5 990.0
15 20.11 З 1 500 м туман 8/0
[As op]
-0.8 -1.2 97 -3 -3 1012.1 990.5
18 20.11 штиль 0 4000 м дымка {туман} 6/0
[As op]
-0.7 -1.1 97 -2 -2 1012.3 990.7 +1.6
21 20.11 З 4 10 км 4/0
[Ac trans]
+0.3 -0.1 97 -5 -5 1012.8 991.2
00 21.11 З 5 20 км ясно -0.3 -2.7 84 -6 -6 1013.2 991.6
03 21.11 З 4 20 км ясно +0.1 -2.6 82 -5 -5 1013.2 991.6
06 21.11 З 4 20 км 3/0
[Ac trans]
-1.4 -4.2 81 -7 -7 1014.0 992.3 -1.7
09 21.11 З 2 10 км в посл. час снег 10/6 600 м
[Sc Ac trans]
+0.3 -1.1 90 -3 -3 1014.3 992.7
12 21.11 СЗ 5 10 км {снег} 8/5 600 м
[Cb cap Ac trans]
+1.9 +0.4 90 -4 -3 1013.7 992.2
15 21.11 З 3 20 км 8/4 600 м
[Sc Ac trans]
+1.2 -1.0 85 -3 -3 1014.7 993.2
18 21.11 З 3 20 км 5/0
[Ac trans]
+0.1 -2.3 84 -5 -5 1015.4 993.7 +2.2 0.0
21 21.11 З 3 20 км ясно -1.2 -3.1 87 -6 -6 1015.8 994.0
00 22.11 З 3 20 км ясно -1.9 -3.8 87 -7 -7 1015.8 994.0
03 22.11 штиль 0 20 км 8/0
[Ac trans]
-1.4 -3.4 86 -3 -3 1016.2 994.4
06 22.11 С 2 10 км 9/0
[Ac trans]
-1.6 -2.7 92 -6 -6 1016.5 994.7 -3.0
09 22.11 штиль 0 20 км 10/4 600 м
[Sc Ac trans]
+0.4 -2.1 83 -1 0 1017.2 995.5
12 22.11 С 2 20 км в посл. час снег 10/0
[Ac und]
+1.3 -1.8 80 -2 -2 1016.9 995.3
15 22.11 штиль 0 10 км 9/4 600 м
[Sc Ac trans]
+0.1 -1.6 88 -1 -1 1017.5 995.8
18 22.11 С 1 4000 м дымка ясно -1.5 -2.6 92 -4 -4 1019.0 997.1 +1.5 0.0
21 22.11 штиль 0 4000 м дымка ясно -3.2 -3.9 95 -4 -4 1020.1 998.1
00 23.11 С 1 1000 м дымка [диам. изморози 2 мм] ясно -5.9 -6.8 93 -8 -8 1021.4 999.1
03 23.11 штиль 0 200 м переохл. туман [диам. изморози 3 мм] ?/? -6.0 -6.9 93 -7 -7 1022.0 999.7
06 23.11 штиль 0 200 м переохл. туман ?/? -5.1 -5.9 94 -6 -6 1023.2 1001.0 -6.5
09 23.11 штиль 0 200 м переохл. туман ?/? -3.9 -4.7 94 -5 -5 1024.1 1001.9
12 23.11 ЮВ 2 4000 м дымка {туман} 3/0
[Ci fib]
+0.1 -0.5 96 -4 -2 1022.6 1000.8
15 23.11 штиль 0 4000 м дымка 3/0
[Ac trans]
-0.2 -0.8 96 -2 -2 1022.9 1001.1
18 23.11 Ю 1 4000 м дымка 4/0
[Ci fib]
-0.8 -1.4 96 -3 -3 1023.3 1001.4 +1.1
21 23.11 Ю 1 4000 м дымка 4/0
[Ci fib]
-2.5 -4.1 89 -5 -5 1023.8 1001.8
00 24.11 ЮВ 1 4000 м дымка ясно -3.0 -4.6 89 -5 -5 1023.0 1000.9
03 24.11 ЮВ 1 10 км ясно -3.4 -4.8 90 -6 -6 1022.5 1000.4
06 24.11 Ю 1 10 км 3/0
[Ci fib]
-3.4 -4.9 89 -6 -6 1023.1 1001.0 -3.9
09 24.11 В 2 10 км 8/0
[Ac trans]
-0.8 -2.8 86 -5 -3 1024.0 1002.1
12 24.11 В 2 10 км 9/0
[Ac As]
+1.9 -0.5 84 -1 -1 1023.4 1001.7

 

Местоположение метеостанции Сороки (Молдова): широта 48.20 долгота 28.30 высота над уровнем моря 173 м.

В архиве по умолчанию представлена погода в Сороках за последнюю неделю. Архивные данные за месяц целиком и за предыдущие месяцы, начиная с января 2011 года, Вы можете получить, выбрав интересующий диапазон дат из раскрывающегося списка и нажав кнопку "Ввод!".

Внимание! Время в таблицах - всемирное. Для получения местного времени необходимо прибавить поправку, которая в Сороках равна 2 ч.

Смотрите также архив погоды в соседних городах и на ближайших метеорологических станциях:

Погода в Каменке (Молдова) (35 км)
Погода в Могилев-Подольском (Винницкая область, Украина) (47 км)
Погода в Бельцах (Молдова) (53 км)
Погода в Рыбнице (Молдова) (72 км)
Погода в Новоднестровске (Черновицкая область, Украина) (75 км)
Погода в Фалештах (Молдова) (82 км)
Погода в Stanca Stefanesti (Румыния) (90 км)
Погода в Бричанах (Молдова) (92 км)
Погода в Бравичах (Молдова) (93 км)
Погода в Жмеринке (Винницкая область, Украина) (96 км)

Пояснения к столбцам:

Ветер - указаны скорость ветра в м/с - средняя за 10 мин, порывы в срок и между сроками (в фигурных скобках) и направление, откуда дует ветер: С - северный, СВ - северо-восточный, В - восточный, ЮВ - юго-восточный, Ю - южный, ЮЗ - юго-западный, З - западный, СЗ - северо-западный.
Видимость - горизонтальная дальность видимости в метрах или километрах. При видимости от 1 до 10 км при отсутствии осадков обычно наблюдается дымка, при ухудшении видимости до 1 км и менее - туман. В сухую погоду видимость может ухудшаться дымом, пылью или мглою.
Явления - указаны атмосферные явления, наблюдавшиеся в срок или в последний час перед сроком; фигурными скобками обозначены явления, наблюдавшиеся между сроками (за 1-3 часа до срока); квадратными скобками обозначены град или гололедные отложения с указанием их диаметра в мм.
Облачность - указаны через наклонную черту общая и нижняя облачность в баллах и высота нижней границы облаков в метрах; квадратными скобками обозначены формы облаков: Ci - перистые, Cs - перисто-слоистые, Cc - перисто-кучевые, Ac - высококучевые, As - высокослоистые, Sc - слоисто-кучевые, Ns - слоисто-дождевые, Cu - кучевые, Cb - кучево-дождевые. Подробнее классификацию облаков см. в Атласе облаков (PDF).
T - Температура воздуха - температура, измеренная на высоте 2 м над землей.
Td - Температура точки росы - температура, при понижении до которой содержащийся в воздухе водяной пар достигнет насыщения.
f - Относительная влажность воздуха - влажноcть воздуха, измеренная на высоте 2 м над землей.
Te - Эффективная температура - температура, которую ощущает одетый по сезону человек в тени. Характеристика душности погоды. При расчете учитывается влияние влажности воздуха и скорости ветра на теплоощущения человека.
Tes - Эффективная температура на солнце - температура, которую ощущает человек, с поправкой на солнечный нагрев. Характеристика знойности погоды. Зависит от высоты солнца над горизонтом, облачности и скорости ветра. Ночью, в пасмурную погоду, а также при ветре 12 м/с и более поправка равна нулю.
P - Атмосферное давление - приведенное к уровню моря атмосферное давление.
Po - Атмосферное давление - измеренное на уровне метеостанции атмосферное давление.
Tmin - Минимальная температура - минимум температуры воздуха на высоте 2 м над землей.
Tmax - Максимальная температура - максимум температуры воздуха на высоте 2 м над землей.
R - Количество осадков - Количество выпавших осадков за период времени, мм. При наведении курсора мыши на число - период времени, за который выпало указанное количество осадков.
R24 - Количество осадков - Количество выпавших осадков за 24 часа, мм.
S - Снежный покров - Высота снежного покрова, см. При наведении курсора мыши на число - состояние снежного покрова и степень покрытия местности в баллах.